| time (UTC) | temp F | wind direction | speed MPH | gust MPH | rain 1hr in | rain 24hr in | rain mn in | humidity % | barometer mb |
| 20260905080036 | 61 | 321 | 0.0 | 1.0 | 0.00 | 0.00 | 0.00 | 88 | 1007.2 |
| 20260905074526 | 61 | 321 | 0.0 | 1.0 | 0.00 | 0.00 | 0.00 | 87 | 1007.2 |
| 20260905073025 | 61 | 321 | 0.0 | 0.0 | 0.00 | 0.00 | 0.00 | 87 | 1007.3 |
| 20260905071523 | 61 | 321 | 0.0 | 1.0 | 0.00 | 0.00 | 0.00 | 87 | 1007.3 |
| 20260905070025 | 61 | 321 | 0.0 | 1.0 | 0.00 | 0.00 | 0.00 | 87 | 1007.5 |
| 20260905064519 | 61 | 321 | 0.0 | 1.0 | 0.00 | 0.00 | 0.00 | 87 | 1007.7 |
| 20260905063018 | 62 | 321 | 0.0 | 0.0 | 0.00 | 0.00 | 0.00 | 86 | 1007.9 |
| 20260905061516 | 62 | 321 | 0.0 | 0.0 | 0.00 | 0.00 | 0.00 | 85 | 1007.8 |
| 20260905060014 | 62 | 333 | 0.0 | 2.0 | 0.00 | 0.00 | 0.00 | 86 | 1007.9 |
| 20260905054516 | 63 | 333 | 0.0 | 0.0 | 0.00 | 0.00 | 0.00 | 86 | 1008.0 |
| 20260905053012 | 63 | 333 | 0.0 | 1.0 | 0.00 | 0.00 | 0.00 | 86 | 1008.1 |
| 20260905051513 | 63 | 333 | 0.0 | 1.0 | 0.00 | 0.00 | 0.00 | 86 | 1008.0 |
| 20260905050010 | 63 | 333 | 0.0 | 2.0 | 0.00 | 0.00 | 0.00 | 86 | 1008.0 |
| 20260905044509 | 63 | 333 | 0.0 | 0.0 | 0.00 | 0.00 | 0.00 | 85 | 1008.1 |
| 20260905043012 | 64 | 333 | 0.0 | 0.0 | 0.00 | 0.00 | 0.00 | 84 | 1008.1 |
| 20260905041506 | 64 | 333 | 0.0 | 0.0 | 0.00 | 0.00 | 0.00 | 84 | 1008.1 |
| 20260905040002 | 64 | 333 | 0.0 | 0.0 | 0.00 | 0.00 | 0.00 | 83 | 1008.0 |
| 20260905034612 | 65 | 333 | 0.0 | 0.0 | 0.00 | 0.00 | 0.00 | 83 | 1007.9 |
| 20260905033101 | 65 | 333 | 0.0 | 0.0 | 0.00 | 0.00 | 0.00 | 83 | 1008.0 |
| 20260905033001 | 65 | 333 | 0.0 | 0.0 | 0.00 | 0.00 | 0.00 | 83 | 1007.9 |
| 20260905031606 | 65 | 333 | 0.0 | 0.0 | 0.00 | 0.00 | 0.00 | 82 | 1007.8 |
| 20260905030056 | 66 | 333 | 0.0 | 0.0 | 0.00 | 0.00 | 0.00 | 82 | 1007.9 |
| 20260905024600 | 66 | 333 | 0.0 | 0.0 | 0.00 | 0.00 | 0.00 | 81 | 1007.8 |
| 20260905023052 | 67 | 333 | 0.0 | 1.0 | 0.00 | 0.00 | 0.00 | 80 | 1007.8 |
| 20260905021556 | 67 | 344 | 0.0 | 3.0 | 0.00 | 0.00 | 0.00 | 80 | 1007.7 |
| 20260905020050 | 67 | 360 | 0.0 | 0.0 | 0.00 | 0.00 | 0.00 | 81 | 1007.9 |
| 20260905014550 | 67 | 360 | 0.0 | 0.0 | 0.00 | 0.00 | 0.00 | 81 | 1008.1 |
| 20260905013050 | 68 | 360 | 0.0 | 0.0 | 0.00 | 0.00 | 0.00 | 80 | 1008.3 |
| 20260905011549 | 68 | 360 | 0.0 | 1.0 | 0.00 | 0.00 | 0.00 | 79 | 1008.3 |
| 20260905010048 | 68 | 360 | 0.0 | 0.0 | 0.00 | 0.00 | 0.00 | 79 | 1008.4 |
| 20260905004550 | 69 | 360 | 0.0 | 0.0 | 0.00 | 0.00 | 0.00 | 78 | 1008.2 |
| 20260905003048 | 69 | 360 | 0.0 | 0.0 | 0.00 | 0.00 | 0.00 | 78 | 1008.0 |
| 20260905001555 | 69 | 360 | 0.0 | 0.0 | 0.00 | 0.00 | 0.00 | 77 | 1007.8 |
| 20260905000057 | 70 | 360 | 0.0 | 0.0 | 0.00 | 0.00 | 0.00 | 76 | 1007.7 |
| 20260904234545 | 71 | 360 | 0.0 | 1.0 | 0.00 | 0.00 | 0.00 | 73 | 1007.6 |
| 20260904233057 | 73 | 360 | 0.0 | 0.0 | 0.00 | 0.00 | 0.00 | 71 | 1007.6 |
| 20260904231553 | 74 | 360 | 0.0 | 1.0 | 0.00 | 0.00 | 0.00 | 70 | 1007.3 |
| 20260904230047 | 75 | 360 | 0.0 | 0.0 | 0.00 | 0.00 | 0.00 | 68 | 1007.3 |
| 20260904224550 | 76 | 360 | 0.0 | 3.0 | 0.00 | 0.00 | 0.00 | 67 | 1007.3 |
| 20260904223056 | 76 | 17 | 0.0 | 1.0 | 0.00 | 0.00 | 0.00 | 66 | 1007.2 |
| 20260904221542 | 77 | 17 | 0.0 | 3.0 | 0.00 | 0.00 | 0.00 | 65 | 1007.1 |
| 20260904220042 | 79 | 15 | 0.0 | 5.0 | 0.00 | 0.00 | 0.00 | 62 | 1007.2 |
| 20260904214541 | 79 | 290 | 0.0 | 4.0 | 0.00 | 0.00 | 0.00 | 61 | 1007.0 |
| 20260904213043 | 80 | 290 | 0.0 | 6.0 | 0.00 | 0.00 | 0.00 | 60 | 1007.0 |
| 20260904211542 | 80 | 344 | 1.0 | 5.0 | 0.00 | 0.00 | 0.00 | 57 | 1006.9 |
| 20260904210051 | 81 | 350 | 2.0 | 7.0 | 0.00 | 0.00 | 0.00 | 56 | 1007.0 |
| 20260904204539 | 81 | 11 | 2.0 | 5.0 | 0.00 | 0.00 | 0.00 | 57 | 1007.0 |
| 20260904203039 | 80 | 20 | 2.0 | 8.0 | 0.00 | 0.00 | 0.00 | 59 | 1007.1 |
| 20260904201538 | 81 | 14 | 2.0 | 6.0 | 0.00 | 0.00 | 0.00 | 61 | 1007.1 |
| 20260904200039 | 81 | 23 | 0.0 | 9.0 | 0.00 | 0.00 | 0.00 | 62 | 1007.1 |
| 20260904194536 | 82 | 344 | 2.0 | 8.0 | 0.00 | 0.00 | 0.00 | 61 | 1007.0 |
| 20260904193035 | 83 | 19 | 1.0 | 6.0 | 0.00 | 0.00 | 0.00 | 63 | 1007.1 |
| 20260904191540 | 83 | 311 | 0.0 | 5.0 | 0.00 | 0.00 | 0.00 | 59 | 1007.2 |
| 20260904190036 | 83 | 26 | 4.0 | 8.0 | 0.00 | 0.00 | 0.00 | 59 | 1007.0 |
| 20260904184533 | 83 | 348 | 2.0 | 8.0 | 0.00 | 0.00 | 0.00 | 59 | 1007.1 |
| 20260904183031 | 83 | 355 | 1.0 | 4.0 | 0.00 | 0.00 | 0.00 | 62 | 1007.1 |
| 20260904181534 | 82 | 336 | 1.0 | 5.0 | 0.00 | 0.00 | 0.00 | 60 | 1007.1 |
| 20260904180029 | 82 | 349 | 2.0 | 6.0 | 0.00 | 0.00 | 0.00 | 63 | 1007.2 |
| 20260904174530 | 82 | 355 | 2.0 | 6.0 | 0.00 | 0.00 | 0.00 | 62 | 1007.4 |
| 20260904173044 | 81 | 5 | 3.0 | 8.0 | 0.00 | 0.00 | 0.00 | 62 | 1007.5 |
| 20260904171525 | 82 | 355 | 2.0 | 7.0 | 0.00 | 0.00 | 0.00 | 62 | 1007.6 |
| 20260904170023 | 82 | 5 | 1.0 | 6.0 | 0.00 | 0.00 | 0.00 | 65 | 1007.7 |
| 20260904164521 | 81 | 19 | 1.0 | 6.0 | 0.00 | 0.00 | 0.00 | 66 | 1007.6 |
| 20260904163021 | 81 | 360 | 1.0 | 6.0 | 0.00 | 0.00 | 0.00 | 65 | 1007.8 |
| 20260904161519 | 80 | 9 | 1.0 | 8.0 | 0.00 | 0.00 | 0.00 | 66 | 1007.9 |
| 20260904160017 | 81 | 10 | 2.0 | 9.0 | 0.00 | 0.00 | 0.00 | 65 | 1008.0 |
| 20260904154516 | 81 | 13 | 0.0 | 9.0 | 0.00 | 0.00 | 0.00 | 68 | 1008.2 |
| 20260904153014 | 80 | 341 | 1.0 | 8.0 | 0.00 | 0.00 | 0.00 | 68 | 1008.1 |
| 20260904151513 | 80 | 355 | 2.0 | 6.0 | 0.00 | 0.00 | 0.00 | 65 | 1008.1 |
| 20260904150014 | 80 | 5 | 2.0 | 8.0 | 0.00 | 0.00 | 0.00 | 67 | 1008.3 |
| 20260904144508 | 79 | 17 | 2.0 | 8.0 | 0.00 | 0.01 | 0.00 | 67 | 1008.3 |
| 20260904143006 | 79 | 5 | 2.0 | 8.0 | 0.00 | 0.01 | 0.00 | 68 | 1008.5 |
| 20260904141505 | 78 | 14 | 2.0 | 7.0 | 0.00 | 0.01 | 0.00 | 73 | 1008.5 |
| 20260904134606 | 77 | 296 | 0.0 | 3.0 | 0.00 | 0.01 | 0.00 | 77 | 1008.7 |
| 20260904133108 | 77 | 131 | 0.0 | 3.0 | 0.00 | 0.01 | 0.00 | 77 | 1008.6 |
| 20260904131602 | 77 | 181 | 0.0 | 2.0 | 0.00 | 0.01 | 0.00 | 80 | 1008.7 |
| 20260904130057 | 75 | 180 | 0.0 | 2.0 | 0.00 | 0.01 | 0.00 | 79 | 1008.7 |
| 20260904124602 | 74 | 180 | 0.0 | 4.0 | 0.00 | 0.01 | 0.00 | 82 | 1008.8 |
| 20260904123050 | 74 | 166 | 0.0 | 3.0 | 0.00 | 0.01 | 0.00 | 83 | 1009.0 |
| 20260904121546 | 73 | 165 | 0.0 | 2.0 | 0.00 | 0.01 | 0.00 | 90 | 1008.9 |
| 20260904120043 | 72 | 165 | 0.0 | 0.0 | 0.00 | 0.01 | 0.00 | 93 | 1009.0 |
| 20260904114540 | 70 | 165 | 0.0 | 0.0 | 0.00 | 0.02 | 0.00 | 94 | 1009.1 |
| 20260904113038 | 69 | 165 | 0.0 | 1.0 | 0.00 | 0.02 | 0.00 | 94 | 1009.1 |
| 20260904111537 | 68 | 165 | 0.0 | 0.0 | 0.00 | 0.02 | 0.00 | 94 | 1009.1 |
| 20260904110037 | 68 | 165 | 0.0 | 0.0 | 0.00 | 0.02 | 0.00 | 94 | 1009.1 |
| 20260904104540 | 68 | 165 | 0.0 | 0.0 | 0.00 | 0.03 | 0.00 | 93 | 1009.0 |
| 20260904103035 | 67 | 165 | 0.0 | 0.0 | 0.00 | 0.03 | 0.00 | 93 | 1008.7 |
| 20260904101535 | 67 | 165 | 0.0 | 0.0 | 0.00 | 0.03 | 0.00 | 93 | 1008.7 |
| 20260904100037 | 67 | 165 | 0.0 | 0.0 | 0.00 | 0.03 | 0.00 | 93 | 1008.6 |
| 20260904094533 | 67 | 165 | 0.0 | 0.0 | 0.00 | 0.18 | 0.00 | 93 | 1008.5 |
| 20260904093033 | 67 | 165 | 0.0 | 0.0 | 0.00 | 0.18 | 0.00 | 93 | 1008.5 |
| 20260904091548 | 68 | 165 | 0.0 | 0.0 | 0.00 | 0.18 | 0.00 | 93 | 1008.4 |
| 20260904090031 | 68 | 165 | 0.0 | 0.0 | 0.00 | 0.18 | 0.00 | 93 | 1008.5 |
| 20260904084531 | 67 | 165 | 0.0 | 0.0 | 0.00 | 0.21 | 0.00 | 93 | 1008.6 |
| 20260904083031 | 67 | 165 | 0.0 | 0.0 | 0.00 | 0.21 | 0.00 | 93 | 1008.7 |
| 20260904081529 | 67 | 165 | 0.0 | 0.0 | 0.00 | 0.21 | 0.00 | 93 | 1008.5 |